Wind_Speed
4 5 6 7 8 9 9 9 9 11 13 13 12 13 13 12 11 11 11 11 11 11 11 11 11 11 11 12 12 12 12 12 13 13 13 14 14 15 16 17 18 18 18 19 20 20 20 20 21
6 6 6 7 8 9 8 9 9 10 10 11 12 12 12 11 10 10 10 10 10 10 11 11 11 11 11 11 12 12 12 12 13 13 14 14 15 16 17 18 18 19 19 19 20 20 21 21 22
7 7 7 8 8 8 8 8 8 9 9 10 11 11 10 10 9 10 10 10 10 10 11 11 11 11 11 11 11 12 12 13 13 14 15 16 16 17 17 18 19 19 20 20 20 21 21 22 22
10 9 9 9 8 8 8 8 8 9 9 10 10 10 9 9 9 9 10 10 10 10 11 11 11 11 11 12 12 12 13 14 15 15 16 17 17 18 18 19 19 20 21 21 21 22 22 22 23
13 12 11 10 10 10 10 9 9 9 10 10 10 9 9 9 9 9 10 10 10 10 11 11 11 12 13 13 14 14 14 15 16 16 17 17 18 18 19 19 20 21 21 22 22 22 23 23 24
16 15 14 12 12 11 11 11 10 10 11 10 10 9 9 9 9 10 10 11 11 11 12 12 12 13 13 14 14 14 15 16 17 17 17 18 18 19 20 20 21 22 22 22 23 23 24 25 25
19 18 16 15 14 14 13 13 12 12 12 12 12 11 10 11 11 11 11 11 11 12 13 13 13 14 14 14 15 16 17 17 18 18 18 19 20 20 21 21 22 23 23 24 24 25 25 26 27
22 21 19 18 17 17 16 15 14 14 14 13 14 13 11 13 12 12 12 12 13 13 13 14 14 15 16 16 17 18 18 18 18 19 19 20 21 21 22 23 23 24 25 25 26 26 27 27 28
26 25 22 21 20 20 18 18 17 17 16 16 16 14 12 14 14 14 14 14 14 14 15 15 16 16 17 18 18 18 18 19 19 20 20 21 22 22 23 24 25 25 26 27 27 28 28 28 29
29 27 26 25 24 23 21 20 20 20 19 19 17 16 15 15 15 15 15 15 15 16 16 17 17 17 18 18 19 19 20 20 21 21 22 22 23 24 25 25 26 27 27 28 28 29 29 29 29
31 29 29 29 27 26 24 24 23 22 22 21 20 18 18 17 17 17 17 18 18 18 18 18 18 19 19 20 20 21 22 22 22 23 23 24 25 25 26 27 27 28 28 29 29 29 30 30 30
34 33 33 32 31 29 28 27 26 25 24 24 23 21 21 20 20 20 20 20 20 20 20 20 20 21 21 22 22 23 23 24 24 25 25 26 26 27 27 28 29 29 29 30 30 31 31 31 31
37 35 35 35 34 32 31 30 29 27 27 27 26 25 23 23 23 22 22 22 22 22 23 23 23 23 24 24 24 25 25 25 26 26 27 27 28 28 29 29 30 30 31 31 32 32 32 32 32
38 38 37 37 36 35 34 33 32 29 30 29 28 27 26 26 25 25 25 25 25 24 25 25 25 25 26 26 27 27 27 27 27 28 28 29 30 30 30 31 31 31 32 32 33 33 33 33 33
40 40 39 38 38 37 37 35 34 32 33 31 30 30 29 28 28 28 27 27 27 27 27 27 27 27 28 28 29 29 29 29 29 29 30 31 31 32 32 32 32 32 33 33 33 33 34 34 34
42 42 41 39 40 39 39 36 36 35 35 34 33 32 32 31 30 30 30 30 30 30 29 29 29 29 29 30 31 31 31 31 31 31 32 32 33 33 33 33 33 33 33 33 34 34 34 35 35
44 42 41 41 42 41 41 38 38 37 37 36 35 35 35 34 33 33 33 32 32 33 32 32 32 32 32 32 32 32 32 33 33 33 33 33 33 33 33 34 34 34 34 34 35 35 35 36 36
43 42 41 42 43 42 42 40 39 40 39 38 37 37 37 37 36 36 35 35 35 35 35 34 34 35 35 34 34 34 34 34 34 34 34 34 34 34 34 34 35 35 35 36 36 36 36 37 38
43 44 43 42 43 44 43 41 39 40 40 39 39 39 38 38 38 38 36 36 36 36 36 36 36 36 36 35 35 35 35 35 35 35 35 35 35 35 35 36 36 36 36 37 37 37 38 38 38
44 44 43 43 44 45 45 43 41 41 41 40 40 40 39 39 39 39 37 37 37 37 37 37 37 37 37 36 36 36 36 36 35 35 36 35 35 35 36 36 36 36 37 38 38 38 38 39 39
45 44 43 43 44 45 46 44 42 41 41 41 41 41 41 40 40 39 38 38 38 38 38 38 38 38 38 38 37 37 37 37 36 36 36 36 36 36 36 36 36 37 38 39 39 39 40 40 41
45 42 42 43 44 45 46 47 41 40 40 41 41 41 40 40 40 40 39 39 39 39 39 39 38 38 38 38 37 37 37 37 37 37 36 36 36 36 36 36 37 38 39 39 39 40 41 41 42
43 42 43 43 44 46 45 48 43 39 39 40 40 39 39 39 40 40 39 39 39 39 39 38 38 38 38 38 38 38 37 37 37 37 37 36 36 36 37 37 38 38 39 40 41 42 42 43 43
43 43 44 44 45 48 43 45 45 39 38 38 38 38 38 39 39 40 39 39 38 38 38 38 38 38 38 38 38 38 37 37 37 37 37 36 36 37 37 38 38 39 39 40 42 42 43 44 44
45 44 44 45 47 47 42 45 46 40 37 37 37 38 38 38 38 38 38 38 37 37 37 37 37 37 37 37 37 37 37 37 37 37 37 37 37 37 38 38 39 39 40 42 43 44 44 44 45
46 45 45 45 45 45 44 45 43 39 37 36 36 36 37 37 37 37 37 37 36 36 37 37 36 36 37 37 37 37 37 36 36 37 37 37 37 38 38 38 39 40 42 43 44 44 45 45 45
47 47 43 44 45 45 46 45 41 38 35 34 34 35 35 36 36 36 36 36 36 36 36 36 36 36 36 36 37 36 36 36 36 36 37 37 37 37 38 39 41 42 43 43 44 45 45 46 47
47 45 45 46 46 46 45 43 42 38 36 34 34 34 34 34 35 35 35 35 35 35 35 35 35 35 35 36 36 35 36 36 36 36 36 37 37 38 39 41 42 43 43 44 45 46 46 47 48
47 47 48 47 48 46 44 42 40 38 35 33 33 33 33 33 33 33 34 34 34 34 34 34 34 34 34 34 34 34 34 34 35 36 36 37 38 39 40 42 43 43 44 45 46 47 47 48 48
46 47 47 47 46 45 44 43 39 38 35 33 32 32 32 32 32 32 32 32 32 32 32 32 32 33 33 33 33 33 34 34 35 35 37 38 39 40 41 42 43 44 45 46 47 47 48 49 49
Wind_Direction
182 174 170 173 175 177 182 192 202 203 208 208 209 216 221 221 225 227 227 230 232 236 240 245 250 254 258 262 266 270 273 276 279 282 285 287 289 291 292 292 293 293 293 293 294 294 294 294 294
190 185 180 177 178 175 180 192 201 201 205 206 209 214 217 217 220 224 228 230 233 237 242 248 252 256 261 265 268 272 275 278 281 283 286 288 289 290 291 291 291 292 292 293 293 293 293 293 293
204 198 191 186 186 183 185 191 196 196 200 204 209 212 213 214 217 225 229 232 235 241 248 252 256 258 263 268 272 275 279 282 284 286 288 289 290 291 291 291 292 292 292 293 292 292 291 291 291
213 208 202 199 194 193 194 194 193 193 196 202 208 211 213 214 219 228 233 237 240 245 251 254 257 261 265 270 274 278 281 284 287 289 290 291 291 292 292 292 292 292 292 292 291 291 290 290 290
218 215 213 207 203 201 202 202 198 196 198 204 210 209 214 219 225 233 239 243 245 248 253 257 261 265 268 271 274 277 281 283 286 288 289 290 291 292 293 293 292 292 292 292 292 291 291 290 290
223 220 218 214 211 211 210 210 210 208 208 211 217 217 216 225 231 238 243 247 248 251 256 260 264 268 271 273 276 279 282 284 286 287 288 289 290 291 292 292 292 292 292 292 292 292 292 292 291
227 225 224 222 220 219 220 220 221 222 223 223 228 231 224 235 238 242 247 249 252 254 259 263 265 269 272 276 279 281 284 286 287 288 288 289 289 290 291 291 292 291 291 291 291 291 291 291 291
229 229 228 228 227 226 226 228 229 231 234 233 236 239 230 241 243 247 251 254 257 259 262 265 268 271 274 277 279 282 284 285 286 288 289 289 290 291 291 291 291 290 290 290 290 291 291 291 290
230 230 229 230 231 231 230 232 235 237 240 241 242 243 239 243 247 251 256 259 262 264 266 268 271 274 276 278 280 282 284 285 286 287 288 289 290 291 291 291 291 290 290 290 290 291 291 291 291
231 231 231 232 233 235 234 235 237 241 243 244 245 247 248 248 252 255 259 262 265 268 270 272 273 275 277 279 281 283 284 285 286 287 288 289 290 290 291 291 290 290 289 289 289 290 291 291 291
232 232 233 233 234 236 237 238 239 242 245 247 248 249 253 254 257 260 263 265 268 270 272 273 275 276 277 279 281 283 285 286 286 287 288 289 290 290 291 291 290 289 289 289 289 290 291 291 291
233 233 234 235 235 236 238 240 241 243 246 248 251 252 254 258 261 264 265 267 269 271 273 275 276 278 279 280 282 283 285 286 287 287 288 289 290 290 291 291 291 290 289 289 290 290 291 291 291
233 233 235 236 236 237 239 241 243 245 247 249 252 254 255 258 261 264 267 268 270 272 274 276 277 278 280 282 283 284 285 286 287 287 288 289 290 291 291 292 292 291 290 290 290 290 290 290 290
234 235 236 237 238 239 240 241 243 245 248 251 253 255 257 258 262 265 267 270 272 274 276 278 279 279 281 282 283 284 285 286 286 287 288 289 290 291 291 292 292 291 290 290 290 291 291 291 292
236 236 237 238 240 240 241 242 244 245 248 251 253 255 258 260 262 266 268 270 273 274 276 279 280 281 281 282 283 285 286 286 286 287 287 288 290 290 290 290 291 291 290 291 291 291 292 292 293
236 238 239 239 241 241 243 242 244 245 249 251 253 256 258 260 263 266 268 270 273 275 276 278 280 281 282 283 284 285 285 285 286 287 287 287 289 290 290 290 291 291 291 291 291 292 293 293 294
237 239 240 241 242 243 244 244 246 247 249 252 254 256 258 260 263 266 268 270 273 275 276 277 279 281 282 283 284 284 284 284 284 286 286 287 288 289 289 290 290 290 290 291 291 292 293 294 294
239 240 242 243 244 245 246 245 247 250 250 253 255 257 259 262 264 266 268 270 273 275 276 277 278 279 281 282 283 283 283 284 284 285 285 285 286 288 289 289 289 290 290 290 291 292 293 294 295
240 240 241 243 246 247 247 247 248 251 253 254 256 257 260 262 264 266 268 270 272 274 275 276 277 278 280 281 281 282 282 283 283 284 284 285 286 287 288 289 289 289 290 291 292 293 294 295 295
240 241 242 244 246 248 249 248 249 252 254 256 257 258 261 263 265 267 269 270 271 273 274 275 276 277 279 279 280 281 282 282 282 283 283 284 285 286 288 288 288 289 290 291 292 293 294 295 296
240 242 243 245 247 250 251 250 250 252 255 257 258 260 262 264 265 267 268 270 271 272 273 274 275 276 277 278 279 279 280 280 280 282 282 283 284 286 287 288 288 289 291 292 293 294 294 295 296
240 242 244 246 248 250 253 253 249 252 255 257 259 261 262 264 266 267 269 270 271 272 272 273 274 275 276 277 277 278 278 279 280 281 282 283 284 285 287 287 288 289 291 292 294 295 296 297 297
240 241 244 246 249 250 251 256 252 252 255 258 260 262 264 265 266 268 269 270 271 271 272 272 273 274 274 275 276 277 277 277 279 280 281 282 283 285 286 287 288 290 291 293 294 296 297 298 298
239 241 243 245 248 250 251 256 257 255 257 259 261 263 265 266 267 269 270 270 271 271 271 272 272 273 273 274 275 276 276 276 277 279 280 282 283 284 286 287 289 290 292 293 295 297 298 298 299
236 238 241 245 248 252 254 256 258 259 259 260 262 264 265 266 268 269 269 270 270 270 271 271 271 272 273 274 275 274 275 276 276 277 279 281 282 284 285 287 289 291 292 294 296 297 297 298 299
237 239 241 246 251 256 256 256 258 260 260 261 262 264 265 267 268 269 270 270 270 271 271 272 272 272 273 273 274 274 275 275 276 277 278 280 283 284 285 287 289 291 293 294 296 297 298 299 299
237 239 243 247 250 254 256 259 259 260 261 262 263 264 266 267 268 269 270 270 271 271 271 271 272 272 272 273 273 274 274 275 276 277 278 281 283 283 285 288 290 292 293 294 296 297 298 299 300
237 239 240 242 246 251 255 258 261 262 262 263 264 265 266 267 267 268 269 270 270 271 271 271 272 272 272 273 273 273 274 276 276 278 279 281 282 283 286 289 291 293 294 295 296 297 298 300 301
236 236 238 241 245 249 255 258 261 263 264 265 265 265 265 266 267 268 269 269 270 271 271 271 271 271 272 273 273 273 275 276 277 278 279 281 283 285 288 290 291 293 294 295 296 298 299 301 301
237 238 240 241 245 249 254 255 259 264 266 266 267 266 266 266 267 268 268 269 270 271 271 270 270 271 271 272 273 274 275 276 277 279 281 282 284 287 289 291 292 293 295 296 297 299 300 301 302
Height
5844 5844 5845 5846 5847 5848 5848 5849 5849 5851 5852 5854 5855 5857 5858 5860 5862 5866 5866 5866 5867 5868 5869 5870 5871 5872 5873 5874 5874 5875 5875 5875 5875 5875 5875 5875 5875 5875 5874 5874 5873 5873 5872 5872 5871 5870 5870 5869 5868
5844 5844 5845 5846 5846 5847 5848 5848 5848 5850 5851 5853 5854 5855 5857 5858 5860 5862 5863 5864 5865 5867 5868 5869 5869 5870 5871 5871 5872 5872 5873 5873 5873 5873 5873 5873 5872 5872 5871 5871 5870 5870 5869 5869 5868 5867 5866 5865 5864
5843 5843 5845 5845 5846 5846 5847 5847 5848 5849 5850 5852 5853 5854 5856 5858 5859 5860 5861 5863 5864 5865 5866 5867 5868 5868 5869 5869 5870 5870 5870 5870 5870 5870 5870 5870 5869 5869 5868 5868 5867 5867 5866 5865 5865 5864 5863 5862 5861
5842 5843 5844 5845 5845 5845 5846 5847 5847 5848 5850 5851 5852 5853 5855 5856 5858 5859 5860 5861 5862 5863 5864 5865 5865 5866 5867 5867 5867 5868 5868 5868 5867 5867 5867 5867 5866 5866 5865 5865 5864 5863 5863 5862 5861 5860 5859 5858 5857
5840 5841 5843 5843 5843 5844 5845 5846 5846 5847 5849 5850 5851 5852 5853 5855 5856 5857 5858 5859 5860 5861 5862 5863 5863 5864 5864 5865 5865 5865 5865 5865 5865 5864 5864 5864 5863 5863 5862 5861 5861 5860 5859 5858 5857 5856 5855 5854 5853
5838 5839 5841 5841 5842 5843 5843 5844 5845 5846 5847 5848 5849 5851 5852 5853 5854 5855 5856 5857 5858 5859 5860 5860 5861 5862 5862 5862 5862 5862 5862 5862 5862 5861 5861 5860 5860 5859 5859 5858 5857 5856 5855 5854 5853 5852 5851 5849 5848
5836 5837 5838 5838 5839 5841 5842 5843 5844 5845 5846 5847 5848 5849 5851 5851 5852 5853 5854 5855 5856 5857 5858 5858 5859 5859 5859 5860 5860 5860 5859 5859 5859 5858 5858 5857 5856 5856 5855 5854 5853 5852 5851 5850 5848 5847 5846 5845 5843
5831 5834 5834 5835 5837 5838 5839 5840 5842 5843 5844 5845 5846 5847 5849 5849 5850 5851 5852 5853 5853 5854 5855 5855 5856 5856 5857 5857 5856 5856 5856 5855 5855 5854 5854 5853 5852 5852 5851 5850 5849 5848 5846 5845 5844 5843 5841 5840 5838
5826 5830 5831 5832 5833 5835 5836 5838 5839 5840 5841 5842 5843 5844 5847 5847 5848 5849 5849 5850 5851 5852 5852 5853 5853 5853 5853 5853 5853 5853 5852 5852 5851 5851 5850 5849 5848 5847 5846 5845 5844 5843 5842 5840 5839 5838 5836 5835 5833
5821 5825 5827 5828 5829 5831 5833 5835 5836 5837 5838 5840 5841 5842 5843 5844 5845 5846 5847 5848 5848 5849 5849 5849 5850 5850 5850 5850 5849 5849 5848 5848 5847 5846 5846 5845 5844 5843 5842 5840 5839 5838 5837 5835 5834 5832 5831 5829 5828
5816 5820 5821 5822 5825 5827 5829 5831 5832 5834 5835 5836 5838 5840 5840 5841 5842 5843 5844 5844 5845 5845 5846 5846 5846 5846 5846 5846 5845 5845 5844 5844 5843 5842 5841 5840 5839 5838 5837 5835 5834 5833 5831 5830 5828 5827 5825 5824 5822
5810 5813 5815 5817 5819 5822 5824 5826 5828 5830 5832 5832 5834 5836 5837 5838 5839 5839 5840 5841 5841 5841 5842 5842 5842 5842 5842 5841 5841 5840 5840 5839 5838 5837 5836 5835 5834 5833 5831 5830 5828 5827 5825 5824 5823 5821 5819 5818 5816
5803 5807 5809 5811 5814 5817 5819 5821 5823 5825 5827 5828 5829 5831 5833 5834 5835 5836 5836 5837 5837 5837 5837 5838 5838 5837 5837 5836 5836 5835 5835 5834 5833 5832 5831 5830 5828 5827 5826 5824 5823 5821 5820 5818 5816 5815 5813 5812 5810
5796 5799 5802 5805 5808 5811 5813 5816 5818 5821 5822 5823 5825 5826 5828 5829 5830 5831 5832 5832 5833 5833 5833 5833 5833 5833 5832 5831 5831 5830 5829 5828 5828 5826 5825 5824 5822 5821 5820 5818 5817 5815 5813 5812 5810 5808 5807 5805 5803
5788 5792 5795 5798 5801 5804 5807 5810 5813 5815 5816 5818 5820 5821 5823 5824 5825 5826 5827 5827 5827 5828 5828 5828 5827 5827 5827 5826 5825 5825 5824 5823 5822 5820 5819 5818 5816 5815 5813 5812 5810 5809 5807 5805 5803 5802 5800 5798 5796
5780 5783 5788 5792 5794 5797 5801 5805 5806 5808 5809 5812 5814 5815 5817 5818 5819 5820 5821 5822 5822 5822 5823 5822 5822 5821 5821 5820 5819 5819 5818 5817 5815 5814 5813 5811 5810 5808 5807 5805 5804 5802 5800 5799 5797 5795 5793 5791 5789
5772 5776 5780 5784 5786 5789 5792 5797 5799 5801 5803 5805 5807 5809 5810 5812 5813 5814 5815 5816 5816 5816 5816 5816 5816 5815 5815 5814 5813 5812 5811 5810 5809 5807 5806 5805 5803 5802 5800 5798 5797 5795 5793 5792 5790 5788 5786 5784 5782
5766 5769 5772 5775 5777 5781 5784 5788 5791 5792 5795 5799 5801 5802 5803 5805 5807 5807 5808 5809 5809 5809 5809 5810 5809 5808 5808 5807 5806 5805 5804 5803 5802 5800 5799 5798 5796 5795 5793 5791 5790 5788 5786 5785 5783 5781 5778 5776 5774
5756 5759 5763 5767 5768 5771 5775 5780 5783 5785 5787 5791 5793 5794 5796 5798 5799 5800 5801 5802 5802 5802 5802 5802 5802 5801 5800 5800 5799 5798 5797 5796 5795 5793 5792 5790 5789 5787 5786 5784 5782 5781 5779 5777 5775 5773 5771 5768 5766
5746 5750 5755 5758 5760 5762 5766 5771 5775 5777 5779 5782 5784 5786 5788 5790 5790 5792 5793 5794 5794 5794 5794 5794 5794 5793 5793 5792 5791 5791 5790 5789 5787 5786 5784 5783 5781 5780 5778 5777 5775 5773 5771 5769 5767 5765 5762 5760 5757
5738 5743 5747 5750 5751 5753 5756 5762 5766 5770 5771 5774 5776 5778 5780 5781 5782 5784 5785 5786 5786 5786 5786 5786 5786 5785 5785 5784 5783 5783 5782 5781 5779 5778 5776 5775 5774 5772 5770 5769 5767 5765 5763 5761 5759 5756 5754 5751 5748
5730 5736 5738 5740 5742 5745 5748 5750 5759 5761 5763 5765 5768 5769 5772 5773 5774 5775 5776 5777 5778 5778 5778 5778 5777 5777 5776 5776 5775 5775 5774 5773 5772 5770 5769 5767 5766 5764 5762 5761 5759 5757 5755 5753 5750 5747 5745 5742 5739
5723 5727 5729 5731 5733 5736 5739 5739 5749 5753 5755 5757 5760 5761 5763 5764 5765 5766 5768 5768 5769 5769 5769 5769 5769 5768 5768 5767 5767 5766 5766 5765 5763 5762 5761 5759 5758 5756 5755 5753 5751 5749 5746 5744 5741 5738 5735 5732 5729
5713 5717 5719 5721 5723 5726 5733 5732 5736 5744 5747 5749 5751 5753 5754 5755 5756 5757 5758 5759 5760 5760 5760 5760 5760 5760 5759 5759 5758 5758 5757 5756 5755 5754 5753 5751 5750 5748 5746 5744 5743 5740 5738 5735 5732 5729 5726 5722 5719
5702 5707 5710 5712 5714 5718 5725 5725 5729 5736 5739 5741 5743 5744 5745 5746 5747 5748 5749 5750 5751 5751 5751 5751 5751 5751 5751 5750 5749 5749 5748 5748 5747 5746 5745 5743 5742 5740 5738 5736 5734 5732 5729 5726 5723 5720 5716 5712 5709
5694 5699 5703 5706 5709 5712 5714 5716 5723 5727 5730 5732 5734 5735 5736 5737 5738 5739 5740 5741 5742 5742 5742 5742 5742 5742 5742 5741 5741 5740 5740 5739 5738 5737 5736 5735 5733 5731 5729 5727 5725 5723 5720 5717 5713 5710 5706 5703 5698
5685 5689 5696 5699 5700 5702 5704 5708 5714 5718 5721 5724 5725 5726 5727 5729 5730 5731 5731 5732 5733 5733 5733 5733 5733 5733 5733 5732 5732 5731 5731 5730 5730 5728 5727 5726 5725 5723 5721 5719 5716 5714 5711 5707 5704 5700 5696 5692 5688
5676 5681 5685 5687 5689 5692 5697 5701 5705 5709 5712 5715 5716 5718 5719 5720 5721 5722 5723 5723 5724 5724 5724 5724 5724 5724 5724 5724 5723 5723 5722 5722 5721 5720 5719 5717 5716 5714 5712 5709 5707 5704 5701 5697 5694 5690 5686 5682 5677
5666 5671 5674 5678 5681 5685 5689 5695 5697 5700 5703 5706 5708 5709 5710 5711 5712 5713 5714 5714 5715 5715 5715 5715 5715 5715 5715 5715 5715 5714 5714 5713 5712 5711 5710 5709 5707 5705 5703 5700 5697 5694 5691 5687 5684 5680 5675 5671 5666
5656 5661 5665 5670 5674 5678 5681 5688 5689 5692 5695 5697 5699 5700 5701 5703 5704 5705 5705 5706 5706 5706 5707 5707 5707 5707 5707 5706 5706 5706 5705 5705 5704 5703 5701 5700 5698 5696 5693 5690 5687 5684 5681 5677 5673 5669 5664 5660 5655